Regional Weather Roundup
Issued by NWS Goodland, KS

Home | Current Version | Previous Version | Text Only | Print | Product List | Glossary On
Versions: 1 2 3 4 5 6 7 8 9 10 11 12 13 14 15 16 17 18 19 20 21 22 23 24 25 26 27 28 29 30 31 32 33 34 35 36 37 38 39 40 41 42 43 44 45 46 47 48 49 50
000
ASUS43 KGLD 010408
RWRGLD

GOODLAND FORECAST AREA HOURLY WEATHER ROUNDUP
NATIONAL WEATHER SERVICE GOODLAND KS
1000 PM MDT WED AUG 31 2016

...OFFICIAL OBSERVATIONS...

CITY           SKY/WX    TMP DP  RH WIND       PRES   REMARKS
GOODLAND KS    MOCLDY    64  62  93 S6        30.24S
HILL CITY KS   CLOUDY    65  64  97 NE3       30.21R
IMPERIAL NEB   CLEAR     63  61  93 E3        30.25R
MCCOOK NEB     PTCLDY    64  61  90 E6        30.22R
AKRON CO       PTCLDY    62  60  93 SE13      30.29R
BURLINGTON CO  CLOUDY    63  60  90 SE9       30.28R
LIMON CO       MOCLDY    57  56  96 SE6       30.33R
$$

...UNOFFICIAL OBSERVATIONS...

CITY           SKY/WX    TMP DP  RH WIND       PRES   REMARKS
COLBY KS       CLEAR     64  64 100 E6        30.25S
LENORA KS        N/A     66  32  28 MISG        N/A
NORTON KS      CLEAR     66  61  82 CALM      30.22
SHARON SPRINGS   N/A     64  62  94 CALM        N/A
TRENTON NEB      N/A     64  32  30 MISG        N/A
KIT CARSON CO    N/A     62  57  83 CALM        N/A
YUMA CO          N/A     64  61  89 CALM        N/A
$$




USA.gov is the U.S. government's official web portal to all federal, state and local government web resources and services.